DW2487 Weather Reports


Display with metric or nautical units.
time (UTC)temp
F
wind
direction
speed
MPH
gust
MPH
rain 1hr
in
rain 24hr
in
rain mn
in
humidity
%
barometer
mb
20260504044537 52 225 0.0 0.0 0.00 0.00 0.00 55 997.7
20260504043033 52 228 0.0 0.0 0.00 0.00 0.00 56 998.2
20260504041513 52 236 0.0 0.0 0.00 0.00 0.00 56 998.5
20260504040054 51 236 0.0 0.0 0.00 0.00 0.00 56 998.8
20260504034552 51 236 0.0 0.0 0.00 0.00 0.00 56 999.2
20260504033032 51 236 0.0 0.0 0.00 0.00 0.00 55 999.6
20260504031532 51 236 0.0 0.0 0.00 0.00 0.00 53 1000.0
20260504030015 52 236 0.0 0.0 0.00 0.00 0.00 50 1000.2
20260504024508 52 236 0.0 0.0 0.00 0.00 0.00 48 1000.4
20260504023045 54 236 0.0 0.0 0.00 0.00 0.00 45 1000.6
20260504021542 55 236 0.0 0.0 0.00 0.00 0.00 41 1000.6
20260504020023 56 236 0.0 0.0 0.00 0.00 0.00 39 1000.8
20260504014524 58 236 0.0 0.0 0.00 0.00 0.00 37 1000.8
20260504013116 61 236 0.0 0.0 0.00 0.00 0.00 34 1000.9
20260504011551 63 236 0.0 0.0 0.00 0.00 0.00 31 1000.9
20260504010029 65 236 0.0 0.0 0.00 0.00 0.00 29 1000.9
20260504004532 66 235 1.0 0.0 0.00 0.00 0.00 28 1000.9
20260504003008 67 273 1.0 0.0 0.00 0.00 0.00 28 1001.2
20260504001504 68 263 1.0 0.0 0.00 0.00 0.00 28 1001.3
20260504000046 68 260 2.0 0.0 0.00 0.00 0.00 26 1001.2
20260503234545 68 217 2.0 0.0 0.00 0.00 0.00 27 1001.4
20260503233026 68 273 1.0 0.0 0.00 0.00 0.00 28 1001.4
20260503231525 69 265 2.0 0.0 0.00 0.00 0.00 26 1001.4
20260503230006 69 261 4.0 0.0 0.00 0.00 0.00 25 1001.5
20260503224505 69 300 4.0 0.0 0.00 0.00 0.00 27 1001.7
20260503223047 69 279 4.0 0.0 0.00 0.00 0.00 27 1001.8
20260503221545 70 269 4.0 0.0 0.00 0.00 0.00 25 1001.9
20260503220029 69 315 4.0 0.0 0.00 0.00 0.00 26 1002.1
20260503214523 69 309 3.0 0.0 0.00 0.00 0.00 27 1002.2
20260503213007 69 270 3.0 0.0 0.00 0.00 0.00 26 1002.4
20260503211502 68 308 3.0 0.0 0.00 0.00 0.00 26 1002.5
20260503210041 68 290 2.0 0.0 0.00 0.00 0.00 27 1002.8
20260503204539 68 311 6.0 0.0 0.00 0.00 0.00 26 1003.0
20260503203041 68 305 6.0 0.0 0.00 0.00 0.00 26 1003.2
20260503201519 68 321 5.0 0.0 0.00 0.00 0.00 26 1003.3
20260503200002 68 300 3.0 0.0 0.00 0.00 0.00 25 1003.3
20260503194600 67 252 4.0 0.0 0.00 0.00 0.00 24 1003.5
20260503193040 67 333 3.0 0.0 0.00 0.00 0.00 24 1003.6
20260503191546 66 307 2.0 0.0 0.00 0.00 0.00 25 1003.7
20260503190034 66 313 5.0 0.0 0.00 0.00 0.00 22 1004.1
20260503184524 65 305 7.0 0.0 0.00 0.00 0.00 23 1004.2
20260503183002 66 336 5.0 0.0 0.00 0.00 0.00 24 1004.3
20260503181605 67 315 3.0 0.0 0.00 0.00 0.00 28 1004.2
20260503180041 66 315 5.0 0.0 0.00 0.00 0.00 31 1004.3
20260503174539 66 325 5.0 0.0 0.00 0.00 0.00 30 1004.4
20260503173022 66 306 4.0 0.0 0.00 0.00 0.00 32 1004.4
20260503171519 65 304 4.0 0.0 0.00 0.00 0.00 33 1004.5
20260503120111 39 121 0.0 0.0 0.00 0.00 0.00 91 1003.3
20260503100105 41 121 0.0 0.0 0.00 0.00 0.00 80 1002.7
20260503081527 49 121 0.0 0.0 0.00 0.00 0.00 63 1003.3
20260503071532 52 126 0.0 0.0 0.00 0.00 0.00 58 1003.5
20260503060109 55 138 0.0 0.0 0.00 0.00 0.00 50 1004.1
20260503054543 55 123 0.0 0.0 0.00 0.00 0.00 51 1004.4
20260503053036 55 128 0.0 0.0 0.00 0.00 0.00 52 1004.7